Terminal Aerodrome Forecast
Issued by NWS

Home | Current Version | Previous Version | Text Only | Print | Product List | Glossary On
Versions: 1 2 3 4 5 6 7 8 9 10 11 12 13 14 15 16 17
000
FTUS41 KGYX 231120
TAFAUG
TAF
KAUG 231120Z 2312/2412 36006KT P6SM SCT035 BKN070
     FM231500 03009KT P6SM SCT025 OVC060
     FM232200 VRB03KT P6SM SCT250=

USA.gov is the U.S. government's official web portal to all federal, state and local government web resources and services.